Location: Newark
(48.0000°N, 67.0000°E)
Time: 23:32:15
(UTC+00:00)

Vanguard 2 - Pass Details

Date: 22 February 2020
Orbit: 553 x 2938 km, 32.9° (Epoch: 28 March)

Event Time Altitude Azimuth Distance (km) Brightness Sun altitude
Exits shadow 20:52:49 16° 114° (ESE) 4,157 11.2 -49.6°
Drops below altitude 10° 20:56:24 10° 102° (ESE) 4,919 11.7 -49.3°
Sets 21:02:21 0° 89° (E) 6,317 12.5 -48.8°
